This demonstration page uses our WeatherBlox Daily Observations layout. Learn more.

Left ArrowRight Arrow

Hourly Observations for March 29, 2015

Temp ( °F °C ) Dew Point ( °F °C ) Humidity (%) Winds ( mph kmh ) Pressure ( in mb ) Visibility ( mi km ) Precip ( " mm )
12:53 am 00:53 Cloudy 43 6.1 38 3.3 82 82 W 13 20 30.11 1020 10 16 N/A
1:53 am 01:53 Partly Cloudy 42 5.6 38 3.3 85 85 W 9 15 30.14 1021 10 16 N/A
2:53 am 02:53 Mostly Cloudy 41 5 37 2.8 86 86 W 10 17 30.14 1021 10 16 N/A
3:53 am 03:53 Clear 36 2.2 34 1.1 93 93 SW 12 19 30.15 1021 10 16 N/A
4:53 am 04:53 Clear 36 2.2 33 0.6 89 89 SW 13 20 30.16 1021 10 16 N/A
5:53 am 05:53 Clear 36 2.2 32 undefined 86 86 SW 14 22 30.16 1021 10 16 N/A
6:53 am 06:53 Clear 32 undefined 31 -0.6 96 96 SW 12 19 30.17 1022 10 16 N/A
7:53 am 07:53 Sunny 38 3.3 32 undefined 79 79 SW 17 28 30.15 1021 10 16 N/A
8:53 am 08:53 Sunny 43 6.1 33 0.6 68 68 SW 22 35 30.13 1020 10 16 N/A
9:53 am 09:53 Sunny 47 8.3 36 2.2 66 66 SW 25 41 30.12 1020 10 16 N/A
10:53 am 10:53 Sunny 51 10.6 36 2.2 56 56 SW 23 37 30.10 1019 10 16 N/A
11:53 am 11:53 Sunny 56 13.3 34 1.1 44 44 WSW 24 39 30.08 1019 10 16 N/A
12:53 pm 12:53 Sunny 58 14.4 33 0.6 39 39 WSW 25 41 30.05 1018 10 16 N/A
1:53 pm 13:53 Sunny 59 15 30 -1.1 33 33 WSW 25 41 30.02 1017 10 16 N/A
2:53 pm 14:53 Sunny 62 16.7 30 -1.1 30 30 W 21 33 29.98 1015 10 16 N/A
3:53 pm 15:53 Sunny 63 17.2 29 -1.7 28 28 W 29 46 29.97 1015 10 16 N/A
4:53 pm 16:53 Sunny 63 17.2 30 -1.1 29 29 W 20 31 29.94 1014 10 16 N/A
5:53 pm 17:53 Sunny 62 16.7 30 -1.1 30 30 WSW 24 39 29.93 1013 10 16 N/A
6:53 pm 18:53 Sunny 59 15 30 -1.1 33 33 W 26 43 29.94 1014 10 16 N/A
7:53 pm 19:53 Clear 55 12.8 31 -0.6 40 40 WSW 20 31 29.92 1013 10 16 N/A
8:53 pm 20:53 Clear 50 10 32 undefined 50 50 SW 13 20 29.95 1014 10 16 N/A
9:53 pm 21:53 Clear 49 9.4 32 undefined 52 52 SW 16 26 29.96 1014 10 16 N/A
10:53 pm 22:53 Clear 50 10 32 undefined 50 50 SW 16 26 29.95 1014 10 16 N/A
11:53 pm 23:53 Clear 49 9.4 32 undefined 52 52 SW 18 30 29.94 1014 10 16 N/A

Powered by AerisWeather